EW5580 Weather Reports


time (UTC)temp
C
wind
direction
speed
KPH
gust
KPH
rain 1hr
cm
rain 24hr
cm
rain mn
cm
humidity
%
barometer
mb
20260505024551 12 360 0.0 6.4 0.00 0.00 0.00 69 1009.4
20260505023050 13 360 0.0 3.2 0.00 0.00 0.00 67 1009.5
20260505021552 13 360 0.0 3.2 0.00 0.00 0.00 65 1009.5
20260505020050 13 360 0.0 3.2 0.00 0.00 0.00 63 1009.4
20260505014549 14 360 0.0 3.2 0.00 0.00 0.00 61 1009.4
20260505013048 14 360 0.0 6.4 0.00 0.00 0.00 59 1009.4
20260505011606 15 360 0.0 8.0 0.00 0.00 0.00 58 1009.0
20260505010050 15 360 1.6 6.4 0.00 0.00 0.00 57 1008.8
20260505004548 15 360 0.0 4.8 0.00 0.00 0.00 55 1008.5
20260505003053 16 360 0.0 8.0 0.00 0.00 0.00 54 1008.2
20260505001558 16 360 0.0 12.9 0.00 0.00 0.00 52 1007.6
20260505000103 16 278 1.6 19.3 0.00 0.00 0.00 51 1007.3
20260504234545 17 360 1.6 9.7 0.00 0.00 0.00 50 1007.1
20260504233102 17 360 1.6 17.7 0.00 0.00 0.00 49 1006.9
20260504231545 18 146 1.6 12.9 0.00 0.00 0.00 48 1006.8
20260504230044 18 243 0.0 11.3 0.00 0.00 0.00 47 1006.5
20260504224544 19 232 4.8 16.1 0.00 0.00 0.00 47 1006.2
20260504223042 20 128 4.8 20.9 0.00 0.00 0.00 44 1006.0
20260504221543 20 276 4.8 19.3 0.00 0.00 0.00 42 1006.0
20260504220041 21 209 4.8 16.1 0.00 0.00 0.00 41 1005.9
20260504214540 21 190 6.4 19.3 0.00 0.00 0.00 40 1005.9
20260504213039 21 257 8.0 22.5 0.00 0.00 0.00 37 1005.9
20260504211538 22 281 1.6 9.7 0.00 0.00 0.00 35 1005.8
20260504210037 22 256 0.0 17.7 0.00 0.00 0.00 36 1005.7
20260504204536 22 227 1.6 14.5 0.00 0.00 0.00 34 1005.5
20260504203036 22 297 11.3 27.4 0.00 0.00 0.00 33 1005.8
20260504201535 22 275 3.2 20.9 0.00 0.00 0.00 35 1005.7
20260504200035 22 321 4.8 17.7 0.00 0.00 0.00 33 1005.8
20260504194534 22 267 8.0 25.7 0.00 0.00 0.00 34 1006.0
20260504193034 22 276 9.7 32.2 0.00 0.00 0.00 31 1005.8
20260504191530 22 245 3.2 20.9 0.00 0.00 0.00 35 1005.9
20260504190028 22 249 6.4 22.5 0.00 0.00 0.00 36 1005.9
20260504184527 22 215 4.8 22.5 0.00 0.00 0.00 32 1006.1
20260504183024 21 261 9.7 30.6 0.00 0.00 0.00 33 1006.0
20260504181523 21 293 3.2 20.9 0.00 0.00 0.00 36 1006.3
20260504180022 21 259 4.8 25.7 0.00 0.00 0.00 33 1006.4
20260504174519 21 267 6.4 24.1 0.00 0.00 0.00 33 1006.6
20260504173021 21 280 14.5 29.0 0.00 0.00 0.00 35 1006.7
20260504171523 21 159 11.3 27.4 0.00 0.00 0.00 34 1006.6
20260504100103 7 297 1.6 6.4 0.00 0.05 0.00 63 1009.8
20260504090105 6 271 0.0 0.0 0.00 0.05 0.00 73 1009.6
20260504081552 6 271 0.0 0.0 0.00 0.05 0.00 75 1009.7
20260504050023 3 270 0.0 3.2 0.00 0.05 0.00 75 1009.4
20260504044524 3 273 0.0 1.6 0.00 0.05 0.00 81 1009.5
20260504043030 2 273 0.0 0.0 0.00 0.05 0.00 80 1009.5
20260504041522 3 273 0.0 0.0 0.00 0.05 0.00 81 1009.4
20260504040015 2 272 0.0 6.4 0.00 0.05 0.00 81 1009.2
20260504034511 2 317 0.0 0.0 0.00 0.05 0.05 83 1009.1
20260504033013 2 317 0.0 0.0 0.00 0.05 0.05 82 1009.0
20260504031509 2 317 0.0 0.0 0.00 0.05 0.05 80 1008.9
20260504030012 2 318 0.0 0.0 0.00 0.05 0.05 78 1008.8